Weather History for Fayetteville, AR

Change the Weather History Date:

Wednesday, January 2, 2013

  Actual Average Record
Temperature  
Mean Temperature 28 °F 35 °F  
Max Temperature 34 °F 46 °F 71 °F (2005)
Min Temperature 21 °F 25 °F -2 °F (1979)
Degree Days  
Heating Degree Days 38 30  
Month to date heating degree days 60  
Since 1 July heating degree days 1743  
Moisture  
Dew Point 22 °F    
Average Humidity 81    
Maximum Humidity 93    
Minimum Humidity 59    
Precipitation  
Precipitation 0.00 in 0.09 in 0.31 in (1950)
Month to date precipitation 0.18  
Year to date precipitation 0.18  
Sea Level Pressure  
Sea Level Pressure 30.26 in    
Wind  
Wind Speed 3 mph (WNW)    
Max Wind Speed 8 mph    
Max Gust Speed -    
Visibility 9 miles    
Events      
T = Trace of Precipitation, MM = Missing Value Source: NWS Daily Summary

Daily Weather History Graph

Daily Weather History Graph

Search for Another Location

Airport:

Trip Planner

Search our weather history database for the weather conditions in past years. The results will help you decide how hot, cold, wet, or windy it might be!

Date:

Astronomy

Jan. 02, 2013 Rise Set
Actual Time 7:27 AM CST 5:14 PM CST
Civil Twilight 6:59 AM CST 5:42 PM CST
Nautical Twilight 6:27 AM CST 6:14 PM CST
Astronomical Twilight 5:55 AM CST 6:45 PM CST
Moon 10:36 PM CST (1/2) 10:19 AM CST (1/2)
Length of Visible Light 10h 43m
Length of Day
9h 46m
Waning Gibbous, 75% of the Moon is Illuminated
Jan 2
Waning Gibbous
Jan 4
Last Quarter
Jan 11
New
Jan 18
First Quarter
Jan 26
Full

Hourly Weather History & Observations

Time (CST) Temp. Windchill Dew Point Humidity Pressure Visibility Wind Dir Wind Speed Gust Speed Precip Events Conditions
12:17 AM 28.4 °F 24.6 °F 24.8 °F 86% 30.22 in 8.0 mi North 3.5 mph - N/A   Overcast
12:53 AM 28.0 °F 22.8 °F 25.0 °F 88% 30.25 in 8.0 mi North 4.6 mph - N/A   Overcast
1:53 AM 28.0 °F 22.8 °F 25.0 °F 88% 30.27 in 8.0 mi NNW 4.6 mph - N/A   Overcast
2:53 AM 27.0 °F 19.5 °F 24.1 °F 89% 30.27 in 7.0 mi NW 6.9 mph - N/A   Overcast
3:53 AM 26.1 °F - 23.0 °F 88% 30.28 in 8.0 mi Calm Calm - N/A   Overcast
4:53 AM 25.0 °F 19.3 °F 21.9 °F 88% 30.28 in 9.0 mi NNW 4.6 mph - N/A   Overcast
5:53 AM 25.0 °F - 21.0 °F 85% 30.27 in 10.0 mi Calm Calm - N/A   Overcast
6:53 AM 24.1 °F 19.7 °F 21.0 °F 88% 30.27 in 9.0 mi North 3.5 mph - N/A   Overcast
7:53 AM 24.1 °F - 19.9 °F 84% 30.27 in 8.0 mi Calm Calm - N/A   Overcast
8:53 AM 25.0 °F - 21.9 °F 88% 30.27 in 8.0 mi Calm Calm - N/A   Overcast
9:53 AM 27.0 °F 21.6 °F 23.0 °F 85% 30.29 in 10.0 mi WSW 4.6 mph - N/A   Mostly Cloudy
10:53 AM 28.0 °F 22.8 °F 24.1 °F 85% 30.30 in 10.0 mi WSW 4.6 mph - N/A   Mostly Cloudy
11:49 AM 30.2 °F 24.3 °F 24.8 °F 80% 30.24 in 10.0 mi West 5.8 mph - N/A   Scattered Clouds
11:53 AM 30.0 °F 26.5 °F 25.0 °F 82% 30.27 in 10.0 mi Variable 3.5 mph - N/A   Scattered Clouds
12:53 PM 33.1 °F 26.1 °F 24.1 °F 70% 30.23 in 10.0 mi West 8.1 mph - N/A   Clear
1:53 PM 33.1 °F 28.7 °F 21.0 °F 61% 30.21 in 10.0 mi SW 4.6 mph - N/A   Clear
2:53 PM 34.0 °F 29.8 °F 21.0 °F 59% 30.21 in 10.0 mi West 4.6 mph - N/A   Clear
3:53 PM 34.0 °F 31.0 °F 21.9 °F 61% 30.22 in 10.0 mi WSW 3.5 mph - N/A   Clear
4:53 PM 32.0 °F 26.4 °F 19.4 °F 60% 30.19 in 10.0 mi WSW 5.8 mph - N/A   Clear
5:53 PM 28.9 °F 25.2 °F 19.9 °F 69% 30.25 in 10.0 mi West 3.5 mph - N/A   Clear
6:53 PM 27.0 °F - 19.9 °F 75% 30.27 in 10.0 mi Calm Calm - N/A   Clear
7:53 PM 24.1 °F - 19.9 °F 84% 30.29 in 10.0 mi Calm Calm - N/A   Clear
8:53 PM 23.0 °F - 19.9 °F 88% 30.30 in 10.0 mi Calm Calm - N/A   Clear
9:53 PM 21.2 °F - 17.6 °F 86% 30.26 in 10.0 mi Calm Calm - N/A   Clear
10:53 PM 21.2 °F - 19.4 °F 93% 30.26 in 8.0 mi Calm Calm - N/A   Clear
11:53 PM 21.0 °F - 19.0 °F 92% 30.31 in 9.0 mi Calm Calm - N/A   Clear